ZIYUAN 3-1 (ZY 3-1)

Last updated on Wed Dec 17 2025 00:02:33 GMT+0000 (Coordinated Universal Time)

1 38046U 12001A 25350.34913387 .00064930 00000+0 55901-3 0 9992 2 38046 97.1754 56.8530 0001540 334.4570 25.6616 15.69108347775536

Satellite not in orbit

ZIYUAN 3-1 (ZY 3-1)